Location: Stockholm
(59.3330°N, 18.0500°E)
Time: 12:49:43
(UTC+01:00)

Envisat - Pass Details

Date: 28 November 2022
Orbit: 763 x 765 km, 98.2° (Epoch: 29 January)

Event Time Altitude Azimuth Distance (km) Brightness Sun altitude
Rises 16:27:54 0° 212° (SSW) 3,226 7.3 -10.1°
Reaches altitude 10° 16:30:53 10° 231° (SW) 2,306 6.9 -10.4°
Maximum altitude 16:34:25 19° 275° (W) 1,784 5.8 -10.8°
Drops below altitude 10° 16:37:59 10° 319° (NW) 2,318 5.7 -11.2°
Sets 16:41:00 0° 338° (NNW) 3,250 6.3 -11.6°
